Accueil
METAR-TAF:

METAR-TAF

Aéroports :

Aéroport international Esenboğa

Ankara Esenboğa, Turquie

latitude: 40-07N, longitude: 032-59E, altitude: 953 m

Observation

Le bulletin a été fait il y a 34 minutes, à 15:20 UTC
Vent 3 kt de sud/sud-est, variant entre est/sud-est et sud
Température 8°C
Humidité 42%
Pression 1019 hPa
Visibilité: 9000 m

METAR: LTAC 211520Z 15003KT 110V190 9000 NSC 08/M04 Q1019 NOSIG RMK RWY21L 00000KT RWY03L VRB01KT RWY21R 03001KT

Heure: 18:54 (15:54 UTC)

Prévision

Le bulletin a été fait il y a 5 heures et 14 minutes, à 10:40 UTC
Prévision valable du 21 à 12 UTC au 22 à 12 UTC
Vent 2 kt de direction variable
Visibilité 10 km ou plus
pas de nuages en-dessous de 1500 mètres et pas de cumulonimbus.
Evoluant progressivement
du 22 à 01 UTC au 22 à 03 UTC
Nuages épars à une hauteur de 4000 ft

TAF: LTAC 211040Z 2112/2212 VRB02KT CAVOK BECMG 2201/2203 SCT040

Observations et prévisions météorologiques de plus de 4000 aéroports (messages METAR et TAF).

Les stations disponibles sont représentées par des disques jaunes et rouges sur la carte.

Passer la souris dessus pour voir le nom de la station.

Cliquer dessus pour voir les observations et prévisions météorologiques.

Pour changer de carte: cliquez sur les boutons verts avec une croix noire pour zoomer, sur le bouton vert avec un tiret pour effectuer un zoom arrière, ou sur les flèches vertes pour les cartes adjacentes.


METAR-TAF: